TimeCDT,TemperatureF,Dew PointF,Humidity,Sea Level PressureIn,VisibilityMPH,Wind Direction,Wind SpeedMPH,Gust SpeedMPH,PrecipitationIn,Events,Conditions,WindDirDegrees,DateUTC
12:53 AM,39.9,35.1,83,29.88,10.0,NNW,5.8,-,N/A,,Overcast,330,2013-10-18 05:53:00
1:53 AM,37.9,34.0,86,29.88,10.0,NW,5.8,-,N/A,,Overcast,320,2013-10-18 06:53:00
2:53 AM,36.0,33.1,89,29.89,10.0,NNW,5.8,-,N/A,,Overcast,330,2013-10-18 07:53:00
3:53 AM,36.0,33.1,89,29.89,10.0,NW,5.8,-,N/A,,Overcast,320,2013-10-18 08:53:00
4:53 AM,35.1,32.0,89,29.90,10.0,NW,6.9,-,N/A,,Mostly Cloudy,320,2013-10-18 09:53:00
5:53 AM,33.1,30.0,89,29.91,10.0,NW,4.6,-,N/A,,Clear,310,2013-10-18 10:53:00
6:53 AM,32.0,28.9,88,29.92,10.0,NW,3.5,-,N/A,,Clear,320,2013-10-18 11:53:00
7:53 AM,30.0,27.0,88,29.93,10.0,Calm,Calm,-,N/A,,Clear,0,2013-10-18 12:53:00
8:53 AM,35.1,30.9,85,29.94,10.0,Calm,Calm,-,N/A,,Clear,0,2013-10-18 13:53:00
9:53 AM,42.1,32.0,67,29.94,10.0,NW,4.6,-,N/A,,Clear,310,2013-10-18 14:53:00
10:53 AM,46.0,30.0,54,29.93,10.0,Calm,Calm,-,N/A,,Mostly Cloudy,0,2013-10-18 15:53:00
11:53 AM,46.0,28.9,51,29.92,10.0,WSW,6.9,-,N/A,,Overcast,250,2013-10-18 16:53:00
12:53 PM,46.9,28.0,48,29.91,10.0,Variable,6.9,-,N/A,,Overcast,0,2013-10-18 17:53:00
1:53 PM,46.0,28.9,51,29.89,10.0,Variable,5.8,-,N/A,,Overcast,0,2013-10-18 18:53:00
2:53 PM,48.0,28.9,48,29.86,10.0,SSW,6.9,-,N/A,,Overcast,210,2013-10-18 19:53:00
3:53 PM,46.0,26.1,46,29.86,10.0,WSW,5.8,-,N/A,,Mostly Cloudy,240,2013-10-18 20:53:00
4:53 PM,45.0,26.1,48,29.86,10.0,WNW,8.1,-,N/A,,Overcast,290,2013-10-18 21:53:00
5:53 PM,44.1,26.1,49,29.87,10.0,Variable,3.5,-,N/A,,Overcast,0,2013-10-18 22:53:00
6:53 PM,42.1,25.0,51,29.87,10.0,West,3.5,-,N/A,,Overcast,260,2013-10-18 23:53:00
7:53 PM,37.0,28.0,70,29.87,10.0,Calm,Calm,-,N/A,,Overcast,0,2013-10-19 00:53:00
8:53 PM,30.9,26.1,82,29.85,10.0,Calm,Calm,-,N/A,,Clear,0,2013-10-19 01:53:00
9:53 PM,30.0,26.1,85,29.84,10.0,Calm,Calm,-,N/A,,Overcast,0,2013-10-19 02:53:00
10:53 PM,30.9,26.1,82,29.81,10.0,Calm,Calm,-,N/A,,Overcast,0,2013-10-19 03:53:00
11:53 PM,30.9,26.1,82,29.80,10.0,Calm,Calm,-,N/A,,Overcast,0,2013-10-19 04:53:00